Regional Weather Roundup
Issued by NWS

Home | Current Version | Previous Version | Graphics & Text | Print | Product List | Glossary On
Versions: 1 2 3 4 5 6 7 8 9 10 11 12 13 14 15 16 17 18 19 20 21 22 23 24 25 26 27 28 29 30 31 32 33 34 35 36 37 38 39 40 41 42 43 44 45 46 47 48 49 50
000
ASUS45 KBOI 310110
RWRID
WEATHER ROUNDUP FOR IDAHO
NATIONAL WEATHER SERVICE BOISE ID
700 PM MDT WED JUL 30 2014

NOTE: "FAIR" INDICATES FEW OR NO CLOUDS BELOW 12000 FEET
WITH NO SIGNIFICANT WEATHER AND/OR OBSTRUCTIONS TO VISIBILITY

IDZ012-014-310200-
SOUTHWEST IDAHO


CITY           SKY/WX    TMP DP  RH WIND       PRES   REMARKS
BOISE          MOSUNNY   94  45  18 N7        30.03F HX  90
CALDWELL       MOSUNNY   91  50  24 CALM      30.04F
MOUNTAIN HOME  PTSUNNY   92  46  20 E17G24    30.04S
$$

IDZ016-017-310200-
SOUTHCENTRAL IDAHO


CITY           SKY/WX    TMP DP  RH WIND       PRES   REMARKS
BURLEY         MOSUNNY   74  52  46 N12G23    30.15R
JEROME         MOSUNNY   80  52  37 N15G26    30.16R
TWIN FALLS     SUNNY     85  48  27 N17       30.16R
$$

IDZ019>023-310200-
SOUTHEAST IDAHO


CITY           SKY/WX    TMP DP  RH WIND       PRES   REMARKS
IDAHO FALLS    MOSUNNY   83  47  28 S16       30.21R
POCATELLO      SUNNY     82  48  30 E9        30.17S
REXBURG        MOSUNNY   79  49  34 W3        30.21S
$$

IDZ006-010-011-018-031-032-310200-
CENTRAL IDAHO MOUNTAINS


CITY           SKY/WX    TMP DP  RH WIND       PRES   REMARKS
MCCALL         PTSUNNY   77  43  29 S10       30.21R
HAILEY         PTSUNNY   61  57  88 NW12      30.31F
STANLEY          N/A     56  53  90 NW5       30.47R
SALMON         CLOUDY    81  45  28 SW9G16    30.11S
CHALLIS        CLOUDY    78  38  23 NW8G20    30.23R
$$

IDZ002-004-006-007-026-310200-
NORTHERN IDAHO


CITY           SKY/WX    TMP DP  RH WIND       PRES   REMARKS
LEWISTON       MOSUNNY  102  40  12 CALM      29.93F HX  97
LOWELL           N/A     86  56  35 CALM      29.95
COEUR D`ALENE  SUNNY     97  41  14 CALM      29.96F HX  92
MULLAN PASS    MOSUNNY   77  41  27 VRB5      30.29S
$$



USA.gov is the U.S. government's official web portal to all federal, state and local government web resources and services.